Location: Julian California
(33.0790°N, 116.6010°W)
Time: 09:54:16
(UTC-07:00)

Cosmos 1726 Rocket - Pass Details

Date: 14 June 2018
Orbit: 604 x 629 km, 82.5° (Epoch: 16 October)

Event Time Altitude Azimuth Distance (km) Brightness Sun altitude
Rises 20:48:35 0° 352° (N) 2,918 7.8 -10.0°
Reaches altitude 10° 20:50:50 10° 351° (N) 2,007 6.9 -10.4°
Maximum altitude 20:55:17 79° 266° (W) 642 3.7 -11.1°
Drops below altitude 10° 20:59:42 10° 179° (S) 1,989 5.8 -11.9°
Enters shadow 21:00:45 - 178° (S) 2,415 6.2 -12.0°
